Wind_Speed
61 62 57 54 55 55 55 55 54 55 56 56 57 55 56 54 54 54 52 52 51 50 51 53 53 52 52 49 47 45 47 42 38 34 37 36 33 31 27 22 30 23 21 21 22
63 63 60 56 56 56 56 55 53 52 53 55 55 55 55 55 53 52 48 49 48 49 49 51 51 53 54 52 52 50 50 45 40 39 37 38 36 34 33 27 27 31 29 29 28
67 64 60 58 58 57 56 57 54 53 52 53 54 57 55 56 55 49 50 49 47 48 46 45 46 49 51 53 54 52 51 46 46 43 42 42 40 38 37 33 28 33 38 34 32
69 66 62 61 60 59 57 57 56 54 53 54 53 55 56 55 54 53 51 49 48 46 45 42 44 44 45 47 50 54 53 50 49 47 46 45 46 45 43 37 32 33 38 37 36
69 67 65 64 62 61 59 59 58 56 55 55 53 54 55 55 55 57 50 50 49 48 47 45 44 44 44 45 44 47 50 51 51 52 53 49 46 49 47 40 38 35 36 36 38
71 70 69 67 65 63 62 60 60 59 56 56 55 56 56 55 56 58 56 52 51 48 47 47 47 45 47 47 46 45 46 46 51 54 55 55 48 47 44 43 42 40 38 36 37
75 73 73 71 69 66 65 63 62 62 60 60 59 58 56 55 55 57 55 53 53 51 49 49 47 46 49 47 49 49 47 46 48 54 58 58 54 54 44 45 48 45 41 40 34
78 77 75 74 73 71 68 67 65 64 62 62 62 61 58 56 56 57 57 55 52 53 50 49 48 47 47 48 48 48 52 51 51 51 56 63 57 52 52 44 50 50 47 46 44
78 77 77 75 74 73 71 70 68 67 66 64 64 62 58 58 59 59 60 57 55 53 51 50 49 48 49 51 52 55 59 52 48 46 52 62 61 55 54 58 49 50 48 47 43
79 76 75 75 75 74 73 72 72 71 71 70 68 64 60 61 62 62 61 59 57 54 54 53 51 49 51 53 54 47 48 50 55 50 48 57 60 63 58 58 57 48 49 52 45
83 78 76 74 74 74 75 77 76 76 73 74 69 65 63 62 63 61 59 60 57 56 56 54 52 53 47 45 46 51 53 53 50 51 54 53 57 70 64 64 65 55 52 56 50
90 83 80 75 73 75 77 77 72 68 69 70 70 67 65 61 60 57 57 60 59 58 56 56 57 49 47 48 49 51 53 52 51 49 53 56 56 65 72 69 67 66 55 56 56
95 91 85 79 75 77 76 71 71 70 71 72 71 66 65 64 59 56 57 57 57 57 56 56 54 51 50 50 54 54 52 50 53 52 53 54 60 63 69 68 67 70 57 55 58
95 93 89 83 77 73 74 73 73 71 71 74 72 71 69 66 64 60 59 59 59 58 57 59 58 57 53 53 52 53 49 50 52 56 55 53 60 61 65 63 72 72 68 56 56
89 91 89 86 84 80 61 76 74 71 71 76 73 69 67 70 65 62 60 61 60 58 60 61 57 55 52 52 48 49 50 51 53 56 57 55 60 60 59 57 67 74 67 65 49
85 84 86 85 78 77 63 73 73 66 69 74 74 70 69 70 71 67 65 63 60 60 61 62 61 58 53 49 47 47 48 50 54 56 63 56 58 63 59 49 46 57 59 70 66
76 89 82 83 85 83 71 67 84 79 72 71 71 70 66 67 67 68 67 66 64 63 63 61 60 56 54 51 48 46 46 50 55 58 61 53 60 65 58 50 41 41 48 62 66
71 79 84 81 81 92 87 71 78 79 73 69 67 64 64 64 61 62 64 64 61 59 59 60 60 57 54 50 47 45 47 52 54 56 56 57 63 60 56 53 42 37 43 58 59
76 75 88 81 88 72 86 89 86 80 69 59 57 61 63 62 60 59 61 62 59 56 55 58 60 58 54 52 51 47 50 49 53 55 58 58 57 61 57 51 43 36 32 31 53
75 78 90 84 82 73 94 94 86 81 77 72 61 61 65 58 55 55 55 55 57 56 54 55 55 57 58 56 53 51 49 50 51 55 58 58 57 57 54 51 43 32 32 33 40
72 78 77 86 88 81 86 89 83 73 66 61 66 64 51 52 50 48 46 46 50 53 54 53 56 59 61 60 55 52 51 52 54 54 57 60 60 54 56 50 44 45 40 40 39
80 71 88 89 83 97 98 86 89 82 83 77 71 67 57 51 45 41 37 37 43 51 55 55 56 58 61 61 59 56 53 52 54 54 58 59 63 53 55 50 48 49 49 47 46
54 75 94 80 66 69 91 94 78 78 71 70 70 66 58 50 47 45 35 35 40 45 51 54 55 56 58 59 60 58 53 54 53 54 57 60 62 51 55 51 48 48 48 48 49
56 80 79 81 63 55 80 90 92 79 73 67 75 69 61 52 44 48 42 39 38 43 44 45 48 50 49 50 53 54 52 51 52 56 56 61 58 51 51 47 45 47 44 48 46
52 74 64 92 62 56 69 77 78 91 75 69 66 56 50 46 41 39 40 39 39 40 39 39 39 42 45 48 50 50 51 52 53 53 57 55 60 48 51 49 47 40 43 46 46
51 66 71 57 70 59 68 78 63 76 70 55 59 48 48 42 39 35 36 38 39 37 36 36 38 41 42 44 46 49 50 52 52 52 55 54 59 42 48 45 41 43 36 45 46
50 60 65 70 61 65 57 59 64 65 60 59 54 49 46 39 38 37 31 26 31 34 34 33 36 38 40 40 43 51 46 50 52 51 50 53 46 37 47 48 40 39 44 42 42
Wind_Direction
242 242 241 241 242 240 241 241 239 240 242 243 245 246 246 244 246 247 246 246 246 245 244 242 241 241 243 242 246 248 251 252 254 258 267 269 268 259 256 248 232 244 245 258 253
241 241 240 240 240 241 240 238 239 240 241 243 244 246 244 246 246 246 247 247 247 247 244 242 241 242 243 244 244 245 249 253 257 255 260 264 261 260 252 249 235 238 235 237 244
242 240 239 240 240 240 241 242 239 239 240 243 244 245 246 244 245 247 246 247 248 249 248 247 247 246 245 245 244 243 246 252 252 254 253 258 263 259 254 247 243 241 236 237 246
242 241 240 240 239 240 240 239 240 240 239 240 242 243 245 245 246 246 247 247 248 250 251 250 250 249 249 247 246 247 246 243 248 252 252 252 256 260 258 251 241 239 240 235 245
241 241 240 239 239 238 239 241 241 239 239 240 240 243 245 246 247 246 245 246 248 250 251 250 249 250 250 251 247 247 246 243 243 245 249 249 254 261 254 250 245 240 239 240 238
240 240 240 238 238 239 238 239 241 241 242 242 242 242 242 245 246 247 247 247 249 249 252 251 251 251 252 252 253 255 253 247 244 242 244 250 247 251 251 252 249 245 241 240 239
239 238 238 238 236 236 237 237 238 240 240 242 244 242 243 243 245 247 247 245 247 249 251 252 252 251 254 254 254 256 255 251 247 242 241 246 244 246 254 249 250 246 245 234 239
240 239 236 237 237 236 234 235 236 237 238 240 241 243 243 243 243 246 246 246 244 247 247 249 251 252 254 257 256 256 259 258 253 246 243 242 242 246 249 250 248 248 246 241 238
238 237 237 235 235 235 235 235 235 235 237 238 239 241 241 243 245 244 245 246 244 243 246 247 248 250 252 254 256 256 258 260 261 258 251 245 244 243 248 252 248 249 249 247 241
236 235 235 234 234 233 234 234 235 234 235 235 235 239 241 240 240 242 244 246 245 242 243 246 248 250 251 253 258 264 262 261 263 259 251 247 244 244 246 250 246 245 245 246 237
234 234 234 234 232 232 233 233 232 232 233 237 238 240 241 242 241 241 243 245 245 245 245 246 248 251 254 255 254 255 256 257 257 255 252 246 242 243 244 246 247 245 241 244 244
233 232 233 233 234 232 233 233 236 238 241 240 237 236 237 239 241 241 244 246 246 246 246 246 249 250 249 251 256 255 255 256 255 257 258 251 244 244 245 244 247 243 240 242 245
233 231 230 231 232 235 233 233 236 235 238 235 233 236 240 242 241 241 241 244 244 245 245 246 248 247 248 248 251 252 255 255 257 258 259 259 246 245 246 247 248 245 240 242 243
229 229 227 226 225 232 235 234 233 234 237 236 233 233 231 234 238 240 241 240 241 242 243 243 243 243 244 248 249 251 253 255 254 259 258 261 259 243 250 252 244 244 242 244 241
224 224 223 223 224 230 230 232 236 235 238 232 230 230 231 231 232 235 238 240 240 241 241 244 243 245 244 247 249 252 253 253 255 255 259 255 263 250 252 255 247 245 251 247 246
224 219 218 217 216 224 227 226 229 231 232 236 232 231 231 230 230 231 232 234 235 237 240 239 240 239 242 241 244 250 252 255 257 259 258 254 265 255 254 265 256 251 248 246 252
213 217 214 214 211 218 212 230 225 226 229 235 232 229 231 233 233 234 235 235 235 236 237 240 240 240 240 241 244 249 255 258 258 259 260 263 267 262 262 269 257 248 249 248 251
203 207 207 206 208 219 224 214 215 221 226 233 231 230 234 234 235 234 237 238 238 239 239 240 240 242 241 243 246 249 253 256 262 262 262 262 260 259 264 267 267 253 247 245 246
198 196 202 201 204 217 219 213 215 222 222 228 231 235 231 232 234 236 238 239 240 243 246 245 243 240 239 238 242 247 253 259 263 261 263 258 257 259 262 263 257 249 237 233 244
201 196 198 196 197 220 217 227 222 225 224 226 229 236 234 232 232 236 238 239 241 241 241 243 244 240 237 236 241 248 250 256 261 265 267 264 261 260 261 260 260 248 226 219 236
204 198 182 193 201 208 216 228 216 221 217 218 227 230 233 236 235 239 241 245 242 239 241 243 241 239 236 237 241 248 253 258 263 264 268 268 261 260 263 260 260 255 251 251 241
203 195 187 190 203 213 218 216 214 228 220 218 224 231 240 238 233 236 239 239 240 238 239 241 240 242 241 239 241 245 249 256 259 264 266 267 260 260 265 266 266 257 258 260 247
209 197 187 192 196 205 213 213 208 205 218 220 222 229 229 239 236 233 236 239 240 238 237 238 239 241 243 241 241 245 248 255 258 259 259 264 264 259 260 263 264 264 259 255 247
193 191 202 192 198 212 210 213 210 222 216 226 225 226 232 235 236 235 235 237 235 233 234 235 238 242 246 246 247 248 249 255 259 259 264 263 269 261 263 261 260 257 248 245 237
196 203 199 206 206 206 209 210 209 209 214 216 219 222 218 222 230 228 230 233 230 227 230 230 234 236 235 240 245 247 251 256 261 265 266 266 266 260 260 256 254 253 247 245 240
195 198 203 201 199 202 205 196 196 213 218 212 209 219 215 223 225 231 238 238 230 227 225 225 228 230 234 241 248 251 253 257 260 263 267 270 265 258 263 253 254 256 257 246 238
187 196 213 208 212 209 207 200 212 214 216 217 217 207 216 212 225 233 232 231 230 230 229 237 236 237 240 246 250 252 256 263 266 264 267 265 270 265 256 253 258 258 255 251 248
Height
5710 5715 5718 5720 5727 5732 5737 5741 5744 5749 5753 5759 5764 5768 5772 5775 5779 5784 5789 5791 5795 5800 5805 5809 5813 5817 5820 5824 5827 5830 5833 5839 5846 5851 5850 5852 5857 5860 5864 5867 5869 5869 5871 5873 5873
5697 5703 5706 5709 5715 5720 5726 5730 5734 5739 5743 5749 5754 5759 5763 5767 5771 5776 5780 5783 5786 5789 5794 5799 5802 5807 5811 5817 5821 5824 5827 5833 5841 5845 5846 5846 5850 5853 5859 5863 5866 5866 5865 5866 5867
5683 5689 5692 5697 5703 5709 5714 5719 5723 5728 5733 5739 5744 5750 5754 5758 5763 5769 5769 5774 5778 5781 5786 5789 5794 5799 5803 5808 5812 5817 5821 5829 5834 5837 5839 5841 5843 5847 5851 5857 5860 5861 5862 5866 5866
5668 5674 5679 5685 5691 5697 5703 5708 5713 5718 5723 5728 5733 5739 5744 5749 5754 5761 5763 5766 5770 5774 5778 5781 5785 5789 5794 5799 5804 5808 5813 5822 5825 5829 5832 5835 5835 5839 5843 5853 5854 5855 5855 5859 5863
5653 5659 5665 5672 5679 5685 5690 5697 5702 5707 5712 5718 5722 5727 5734 5740 5745 5749 5755 5758 5761 5765 5769 5772 5776 5780 5783 5789 5794 5797 5803 5810 5817 5820 5824 5827 5830 5831 5835 5843 5848 5848 5850 5852 5855
5638 5643 5651 5659 5666 5671 5677 5684 5690 5694 5699 5705 5711 5717 5725 5731 5735 5739 5746 5749 5753 5757 5761 5764 5767 5772 5775 5779 5784 5789 5794 5800 5805 5811 5813 5816 5824 5823 5832 5835 5840 5843 5846 5847 5850
5620 5629 5636 5643 5651 5658 5664 5669 5676 5682 5688 5692 5698 5704 5713 5722 5724 5728 5735 5741 5743 5748 5753 5756 5759 5763 5767 5771 5775 5779 5784 5790 5794 5798 5801 5806 5812 5815 5828 5827 5830 5835 5838 5841 5845
5602 5612 5621 5628 5636 5643 5650 5655 5662 5668 5674 5680 5685 5693 5703 5708 5714 5719 5724 5731 5735 5738 5744 5748 5750 5755 5758 5763 5766 5769 5773 5777 5782 5788 5793 5795 5804 5813 5817 5820 5822 5824 5829 5831 5835
5583 5593 5602 5613 5620 5627 5635 5642 5647 5653 5660 5666 5673 5683 5692 5698 5704 5707 5711 5719 5724 5729 5733 5738 5742 5746 5750 5753 5756 5759 5762 5769 5776 5784 5786 5787 5796 5806 5807 5809 5813 5816 5822 5825 5830
5565 5576 5585 5596 5605 5612 5619 5625 5631 5637 5643 5651 5659 5670 5681 5689 5690 5695 5700 5706 5713 5719 5724 5727 5732 5738 5741 5743 5748 5757 5759 5762 5765 5770 5773 5777 5784 5792 5797 5799 5805 5809 5813 5817 5821
5546 5558 5569 5579 5589 5596 5601 5603 5615 5622 5632 5641 5653 5660 5668 5675 5681 5685 5690 5695 5701 5705 5713 5719 5724 5730 5737 5740 5741 5744 5747 5751 5757 5758 5758 5765 5771 5775 5782 5787 5793 5800 5805 5809 5815
5525 5540 5552 5564 5573 5580 5583 5596 5611 5624 5625 5631 5639 5648 5655 5662 5670 5675 5680 5686 5692 5698 5704 5710 5716 5722 5727 5729 5733 5736 5738 5743 5746 5747 5747 5752 5759 5764 5766 5776 5780 5788 5796 5801 5804
5502 5519 5535 5549 5562 5560 5573 5592 5595 5604 5604 5611 5621 5633 5644 5651 5658 5664 5671 5676 5683 5687 5694 5700 5707 5711 5716 5720 5723 5726 5730 5736 5735 5736 5738 5737 5744 5753 5756 5763 5770 5778 5788 5792 5795
5478 5497 5517 5535 5543 5544 5565 5577 5581 5589 5585 5593 5606 5618 5627 5633 5645 5653 5658 5664 5669 5677 5683 5687 5694 5700 5706 5712 5713 5718 5724 5725 5726 5724 5727 5727 5726 5740 5744 5752 5759 5768 5777 5783 5785
5456 5476 5497 5515 5531 5532 5561 5563 5570 5572 5560 5576 5590 5604 5614 5625 5636 5641 5647 5651 5659 5666 5672 5680 5688 5693 5699 5703 5706 5711 5711 5714 5713 5714 5712 5722 5714 5728 5736 5743 5755 5756 5764 5769 5774
5434 5457 5480 5498 5518 5533 5540 5545 5552 5550 5542 5563 5581 5593 5603 5614 5622 5628 5632 5639 5649 5653 5659 5666 5676 5682 5689 5694 5697 5700 5702 5703 5703 5703 5695 5717 5709 5712 5724 5735 5742 5747 5753 5757 5762
5416 5440 5460 5484 5503 5515 5525 5525 5527 5520 5537 5552 5573 5587 5598 5603 5611 5616 5622 5628 5635 5642 5649 5659 5667 5675 5681 5685 5689 5693 5696 5692 5690 5690 5691 5705 5696 5701 5717 5724 5730 5737 5739 5745 5751
5402 5423 5445 5468 5492 5494 5504 5508 5499 5506 5534 5548 5567 5579 5583 5593 5597 5607 5613 5621 5630 5637 5644 5648 5658 5666 5676 5680 5682 5685 5684 5682 5681 5682 5687 5688 5684 5697 5707 5711 5716 5722 5728 5731 5740
5391 5404 5426 5456 5473 5472 5481 5481 5484 5506 5529 5543 5556 5560 5571 5580 5590 5596 5605 5614 5622 5631 5637 5642 5648 5655 5664 5668 5669 5678 5673 5681 5670 5673 5669 5677 5687 5687 5695 5703 5709 5710 5715 5720 5728
5378 5393 5411 5441 5459 5457 5462 5467 5482 5500 5520 5533 5543 5554 5564 5575 5582 5588 5596 5608 5614 5621 5626 5631 5639 5646 5651 5655 5660 5662 5667 5665 5663 5661 5661 5669 5673 5677 5687 5694 5703 5706 5709 5712 5716
5369 5381 5404 5428 5442 5443 5442 5456 5478 5495 5509 5525 5535 5547 5558 5568 5578 5584 5593 5599 5606 5613 5615 5621 5627 5633 5638 5645 5651 5653 5655 5656 5656 5654 5653 5656 5660 5674 5674 5684 5693 5696 5698 5701 5705
5357 5370 5394 5414 5422 5429 5442 5447 5473 5486 5501 5515 5527 5541 5553 5563 5570 5577 5585 5592 5595 5600 5606 5610 5612 5620 5628 5635 5638 5641 5647 5646 5644 5648 5645 5645 5646 5666 5665 5672 5677 5681 5684 5688 5694
5357 5371 5384 5393 5400 5413 5433 5449 5459 5474 5491 5509 5522 5533 5544 5554 5562 5570 5576 5581 5584 5588 5594 5599 5602 5608 5615 5623 5628 5632 5639 5638 5639 5637 5634 5633 5637 5657 5656 5662 5667 5672 5677 5680 5682
5350 5364 5373 5380 5398 5411 5422 5433 5452 5473 5486 5502 5514 5525 5537 5546 5554 5560 5568 5571 5575 5579 5583 5587 5594 5602 5612 5616 5619 5622 5626 5627 5626 5624 5631 5625 5634 5647 5651 5654 5657 5657 5662 5664 5667
5347 5355 5368 5372 5391 5405 5419 5435 5446 5458 5475 5492 5504 5521 5531 5540 5546 5553 5559 5563 5565 5569 5574 5580 5588 5595 5602 5604 5607 5613 5616 5616 5616 5622 5612 5624 5617 5635 5638 5638 5642 5646 5651 5654 5658
5346 5355 5362 5377 5390 5402 5412 5423 5441 5459 5476 5489 5504 5514 5525 5534 5542 5549 5554 5557 5558 5562 5568 5574 5581 5588 5593 5597 5599 5600 5605 5607 5610 5611 5605 5609 5603 5626 5623 5627 5630 5633 5636 5642 5648
5335 5350 5359 5372 5383 5396 5406 5425 5443 5459 5474 5487 5500 5509 5520 5527 5535 5541 5544 5550 5556 5560 5566 5572 5576 5581 5586 5588 5587 5589 5601 5598 5597 5599 5599 5595 5605 5616 5609 5612 5618 5618 5622 5630 5636